Location: *
(28.2408°N, 53.4600°E)
Time: 23:57:27
(UTC+00:00)

Cosmos 1707 - Pass Details

Date: 22 September 2019
Orbit: 517 x 530 km, 82.5° (Epoch: 20 October)

Event Time Altitude Azimuth Distance (km) Brightness Sun altitude
Rises 16:06:56 0° 342° (NNW) 2,671 6.7 -23.4°
Reaches altitude 10° 16:09:13 10° 333° (NNW) 1,778 5.9 -23.9°
Maximum altitude 16:12:45 34° 268° (W) 890 4.4 -24.7°
Enters shadow 16:16:13 10° 203° (SSW) 1,745 5.4 -25.4°
